DECAYED

IRIDIUM 33 DEB, 35632 (Decayed)

Orbit data source: Space-Track

IRIDIUM 33 DEB, 35632 was space debris in LEO originally from a launch on Sun, 14 Sep 1997 UTC launched from the Tyuratam Missile And Space Complex (TTMTR). The debris from Iridium 33, an American commercial communications satellite, has been tracked extensively since its accidental collision with the defunct Russian satellite Cosmos 2251 in 2009. This event, occurring at high speed in low Earth orbit (LEO), generated thousands of pieces of space debris, significantly increasing the risk of further collisions. The Iridium 33 debris cloud has impacted space traffic management and orbital debris mitigation strategies, making it a subject of ongoing study in space situational awareness.

Not visible in the next 10 days
Identifier
35632, 1997-051RE
Orbit
Decayed
Country
Flag of USUS
Related business
Manufacturer
Unknown
Mission
Decayed spacecraft
Bus & Motor
Unknown
Mass
Unknown
Launch date (UTC)
1997-09-14 (29 years ago)
Launch vehicle
Unknown
Launch site
Tyuratam Missile And Space Complex (TTMTR)
Object type
Payload
Rocket body
Debris
Shape & HBR
Unknown shape, 0.1 m
Radar Cross Section
Medium (>0.1 m² and <1 m²)

Expand to show TLE details & history
Last TLE update: 1 year ago

TLE from 1 year ago
0 IRIDIUM 33 DEB
1 35632U 97051RE  25097.10761633  .00232306  00000-0  85745-2 0  9998
2 35632  86.3651 237.6869 0038236 245.9096 113.8149 15.26125294823656
Epoch: 2025-04-07T02:34Z
TLE epoch observation values (Epoch: 2025-04-07T02:34:58.050Z)
Latitude
-0.00003°
Longitude
3.31724°
Altitude
501.274 km
Speed
7.608 km/s
True Right ascension
15h 50m 44s
True Declination
0° 00' 00"
Sunlit
Object was in full shadow at epoch
Visualization orbit readout
Latitude
Unknown
Longitude
Unknown
Altitude
Unknown
Speed
Unknown
Apparent Right ascension
Unknown
Apparent Declination
Unknown
Sunlit
N/A
Visualization observer readout
Local Sidereal Time
03:48:59
Azimuth
Unknown
Elevation
Unknown
Doppler factor
Unknown
Orbital elements
Apogee altitude
510.484 km
Perigee altitude
458.006 km
Semi-major axis
6,862.382 km
Eccentricity
0.00382
Inclination
86.3651°
RAAN
237.6869°
Arg. of periapsis
245.9096°
True anomaly
114.21497°
Mean anomaly
113.8149°
Eccentric anomaly
114.01501°
Mean motion
3.81796 °/min
Orbital period
94.29 mins
BSTAR
0.0085745
Loading maneuver chart data...
Computing Atmospheric mass density...

Documentation

Showing up to 5 results
|